Weather History for Millinocket, ME

Change the Weather History Date:

Tuesday, January 22, 2013

  Actual Average Record
Temperature  
Mean Temperature 0 °F 13 °F  
Max Temperature 8 °F 23 °F 52 °F (1910)
Min Temperature -9 °F 3 °F -34 °F (1934)
Degree Days  
Heating Degree Days 65 52  
Month to date heating degree days 1045 1118  
Since 1 July heating degree days 3919 4283  
Cooling Degree Days 0 0  
Month to date cooling degree days 0 0  
Year to date cooling degree days 0 0  
Moisture  
Dew Point -10 °F    
Average Humidity 64    
Maximum Humidity 83    
Minimum Humidity 45    
Precipitation  
Precipitation T in 0.08 in 1.62 in (1979)
Month to date precipitation 0.58 2.17  
Year to date precipitation 0.58 2.17  
Sea Level Pressure  
Sea Level Pressure 29.90 in    
Wind  
Wind Speed 4 mph (NW)    
Max Wind Speed 14 mph    
Max Gust Speed 22 mph    
Visibility 10 miles    
Events      
T = Trace of Precipitation, MM = Missing Value Source: NWS Daily Summary

Daily Weather History Graph

Daily Weather History Graph

Search for Another Location

Airport:

Trip Planner

Search our weather history database for the weather conditions in past years. The results will help you decide how hot, cold, wet, or windy it might be!

Date:

Astronomy

Jan. 22, 2013 Rise Set
Actual Time 7:06 AM EST 4:27 PM EST
Civil Twilight 6:33 AM EST 4:59 PM EST
Nautical Twilight 5:57 AM EST 5:35 PM EST
Astronomical Twilight 5:22 AM EST 6:11 PM EST
Moon 12:45 PM EST (1/22) 3:26 AM EST (1/22)
Length of Visible Light 10h 25m
Length of Day
9h 20m
Waxing Gibbous, 82% of the Moon is Illuminated
Jan 22
Waxing Gibbous
Jan 26
Full
Feb 3
Last Quarter
Feb 10
New
Feb 17
First Quarter

Hourly Weather History & Observations

Time (EST) Temp. Windchill Dew Point Humidity Pressure Visibility Wind Dir Wind Speed Gust Speed Precip Events Conditions
12:53 AM 3.0 °F - -7.1 °F 63% 29.91 in 10.0 mi Calm Calm - N/A   Clear
1:53 AM 1.0 °F -6.7 °F -8.0 °F 66% 29.89 in 10.0 mi NNE 3.5 mph - N/A   Clear
2:53 AM -6.0 °F - -9.9 °F 83% 29.89 in 10.0 mi Calm Calm - N/A   Clear
3:53 AM -5.1 °F - -9.9 °F 80% 29.89 in 10.0 mi Calm Calm - N/A   Clear
4:53 AM -7.1 °F - -11.9 °F 79% 29.89 in 10.0 mi Calm Calm - N/A   Mostly Cloudy
5:53 AM -6.0 °F - -13.0 °F 72% 29.90 in 10.0 mi Calm Calm - N/A   Overcast
6:53 AM -4.0 °F -12.4 °F -13.0 °F 65% 29.90 in 10.0 mi North 3.5 mph - N/A   Overcast
7:53 AM -5.1 °F -20.4 °F -13.0 °F 69% 29.89 in 10.0 mi North 8.1 mph - N/A   Clear
8:53 AM -2.9 °F -15.0 °F -11.9 °F 65% 29.90 in 10.0 mi NE 5.8 mph - N/A   Mostly Cloudy
9:53 AM -2.0 °F -15.4 °F -11.9 °F 63% 29.91 in 10.0 mi North 6.9 mph - N/A   Mostly Cloudy
10:53 AM -0.0 °F -13.0 °F -11.0 °F 60% 29.89 in 10.0 mi North 6.9 mph - N/A   Overcast
11:53 AM 1.9 °F -7.6 °F -11.0 °F 55% 29.85 in 10.0 mi North 4.6 mph - N/A   Mostly Cloudy
12:53 PM 3.9 °F -6.9 °F -9.9 °F 53% 29.85 in 10.0 mi NW 5.8 mph - N/A   Overcast
1:53 PM 5.0 °F -2.1 °F -9.9 °F 50% 29.85 in 10.0 mi West 3.5 mph - N/A   Overcast
2:53 PM 7.0 °F -1.7 °F -9.0 °F 48% 29.86 in 10.0 mi NW 4.6 mph - 0.00 in   Partly Cloudy
3:53 PM 7.0 °F -1.7 °F -9.9 °F 46% 29.87 in 10.0 mi WNW 4.6 mph - N/A   Clear
4:53 PM 6.1 °F -4.3 °F -11.0 °F 45% 29.88 in 10.0 mi WNW 5.8 mph - N/A   Scattered Clouds
5:53 PM 5.0 °F -4.1 °F -9.9 °F 50% 29.91 in 10.0 mi WNW 4.6 mph - N/A   Overcast
6:53 PM 3.0 °F -8.0 °F -9.9 °F 55% 29.92 in 10.0 mi WNW 5.8 mph - N/A   Scattered Clouds
7:53 PM 1.0 °F - -9.9 °F 60% 29.92 in 10.0 mi Calm Calm - N/A   Mostly Cloudy
8:53 PM -2.0 °F -10.1 °F -9.9 °F 69% 29.93 in 9.0 mi WNW 3.5 mph - N/A   Mostly Cloudy
9:53 PM 1.9 °F -12.9 °F -7.1 °F 66% 29.93 in 9.0 mi West 9.2 mph - N/A   Mostly Cloudy
10:02 PM 1.4 °F -11.3 °F -5.8 °F 72% 29.88 in 8.0 mi West 6.9 mph - N/A   Overcast
10:18 PM 1.4 °F -9.9 °F -7.6 °F 66% 29.88 in 10.0 mi Variable 5.8 mph 18.4 mph N/A   Scattered Clouds
10:53 PM 1.0 °F -14.9 °F -11.9 °F 55% 29.94 in 10.0 mi West 10.4 mph 18.4 mph N/A   Clear
11:53 PM -0.0 °F -11.6 °F -13.0 °F 54% 29.94 in 10.0 mi Variable 5.8 mph - N/A   Clear